| time (UTC) | temp C | wind direction | speed KPH | gust KPH | rain 1hr cm | rain 24hr cm | rain mn cm | humidity % | barometer mb |
| 20260831004552 | 33 | 179 | 4.8 | 16.1 | 0.00 | 0.00 | 0.00 | 41 | 1010.9 |
| 20260831004024 | 34 | 201 | 3.2 | 17.7 | 0.00 | 0.00 | 0.00 | 41 | 1010.9 |
| 20260831003524 | 34 | 0 | 6.4 | 17.7 | 0.00 | 0.00 | 0.00 | 40 | 1010.9 |
| 20260831003103 | 34 | 186 | 4.8 | 19.3 | 0.00 | 0.00 | 0.00 | 40 | 1010.9 |
| 20260831002524 | 35 | 0 | 3.2 | 22.5 | 0.00 | 0.00 | 0.00 | 40 | 1010.9 |
| 20260831002025 | 35 | 175 | 6.4 | 22.5 | 0.00 | 0.00 | 0.00 | 40 | 1010.8 |
| 20260831001547 | 35 | 175 | 4.8 | 17.7 | 0.00 | 0.00 | 0.00 | 40 | 1010.8 |
| 20260831001024 | 35 | 169 | 4.8 | 19.3 | 0.00 | 0.00 | 0.00 | 39 | 1010.7 |
| 20260831000523 | 35 | 175 | 4.8 | 19.3 | 0.00 | 0.00 | 0.00 | 40 | 1010.9 |
| 20260831000049 | 35 | 170 | 4.8 | 17.7 | 0.00 | 0.00 | 0.00 | 39 | 1010.8 |
| 20260830235528 | 35 | 171 | 3.2 | 19.3 | 0.00 | 0.00 | 0.00 | 39 | 1010.8 |
| 20260830235027 | 36 | 178 | 1.6 | 20.9 | 0.00 | 0.00 | 0.00 | 39 | 1010.6 |
| 20260830234546 | 36 | 138 | 9.7 | 20.9 | 0.00 | 0.00 | 0.00 | 38 | 1010.6 |
| 20260830234025 | 36 | 209 | 4.8 | 17.7 | 0.00 | 0.00 | 0.00 | 38 | 1010.6 |
| 20260830233529 | 36 | 173 | 6.4 | 17.7 | 0.00 | 0.00 | 0.00 | 38 | 1010.6 |
| 20260830233050 | 36 | 186 | 3.2 | 14.5 | 0.00 | 0.00 | 0.00 | 38 | 1010.5 |
| 20260830232525 | 36 | 160 | 4.8 | 24.1 | 0.00 | 0.00 | 0.00 | 37 | 1010.5 |
| 20260830232025 | 36 | 0 | 6.4 | 30.6 | 0.00 | 0.00 | 0.00 | 36 | 1010.5 |
| 20260830231549 | 36 | 171 | 9.7 | 32.2 | 0.00 | 0.00 | 0.00 | 35 | 1010.4 |
| 20260830231023 | 36 | 160 | 8.0 | 32.2 | 0.00 | 0.00 | 0.00 | 35 | 1010.6 |
| 20260830230527 | 37 | 143 | 9.7 | 24.1 | 0.00 | 0.00 | 0.00 | 34 | 1010.4 |
| 20260830230045 | 37 | 182 | 4.8 | 29.0 | 0.00 | 0.00 | 0.00 | 35 | 1010.3 |
| 20260830225524 | 37 | 333 | 8.0 | 32.2 | 0.00 | 0.00 | 0.00 | 35 | 1010.3 |
| 20260830225022 | 37 | 184 | 11.3 | 32.2 | 0.00 | 0.00 | 0.00 | 35 | 1010.3 |
| 20260830224548 | 37 | 161 | 11.3 | 25.7 | 0.00 | 0.00 | 0.00 | 34 | 1010.3 |
| 20260830224025 | 37 | 128 | 9.7 | 30.6 | 0.00 | 0.00 | 0.00 | 35 | 1010.2 |
| 20260830223523 | 37 | 227 | 11.3 | 35.4 | 0.00 | 0.00 | 0.00 | 35 | 1010.3 |
| 20260830223045 | 37 | 173 | 11.3 | 35.4 | 0.00 | 0.00 | 0.00 | 35 | 1010.3 |
| 20260830222524 | 37 | 126 | 4.8 | 27.4 | 0.00 | 0.00 | 0.00 | 36 | 1010.4 |
| 20260830222024 | 37 | 198 | 9.7 | 27.4 | 0.00 | 0.00 | 0.00 | 35 | 1010.3 |
| 20260830221545 | 37 | 130 | 6.4 | 30.6 | 0.00 | 0.00 | 0.00 | 36 | 1010.3 |
| 20260830221024 | 37 | 155 | 6.4 | 30.6 | 0.00 | 0.00 | 0.00 | 36 | 1010.3 |
| 20260830220526 | 37 | 152 | 9.7 | 30.6 | 0.00 | 0.00 | 0.00 | 36 | 1010.4 |
| 20260830220051 | 37 | 183 | 9.7 | 22.5 | 0.00 | 0.00 | 0.00 | 36 | 1010.4 |
| 20260830215527 | 37 | 236 | 6.4 | 27.4 | 0.00 | 0.00 | 0.00 | 36 | 1010.4 |
| 20260830215027 | 37 | 125 | 6.4 | 29.0 | 0.00 | 0.00 | 0.00 | 36 | 1010.4 |
| 20260830214544 | 37 | 169 | 12.9 | 29.0 | 0.00 | 0.00 | 0.00 | 36 | 1010.4 |
| 20260830214026 | 37 | 181 | 9.7 | 27.4 | 0.00 | 0.00 | 0.00 | 35 | 1010.4 |
| 20260830213530 | 37 | 148 | 12.9 | 24.1 | 0.00 | 0.00 | 0.00 | 35 | 1010.6 |
| 20260830213049 | 37 | 158 | 8.0 | 22.5 | 0.00 | 0.00 | 0.00 | 37 | 1010.6 |
| 20260830212524 | 37 | 174 | 4.8 | 30.6 | 0.00 | 0.00 | 0.00 | 37 | 1010.6 |
| 20260830212027 | 37 | 202 | 6.4 | 32.2 | 0.00 | 0.00 | 0.00 | 38 | 1010.6 |
| 20260830211548 | 37 | 126 | 14.5 | 32.2 | 0.00 | 0.00 | 0.00 | 38 | 1010.8 |
| 20260830211026 | 37 | 213 | 8.0 | 30.6 | 0.00 | 0.00 | 0.00 | 37 | 1010.8 |
| 20260830210524 | 37 | 149 | 6.4 | 30.6 | 0.00 | 0.00 | 0.00 | 36 | 1010.8 |
| 20260830210046 | 37 | 128 | 9.7 | 25.7 | 0.00 | 0.00 | 0.00 | 37 | 1010.8 |
| 20260830205527 | 37 | 185 | 8.0 | 25.7 | 0.00 | 0.00 | 0.00 | 38 | 1011.0 |
| 20260830205023 | 37 | 161 | 6.4 | 30.6 | 0.00 | 0.00 | 0.00 | 38 | 1011.0 |
| 20260830204544 | 37 | 209 | 6.4 | 30.6 | 0.00 | 0.00 | 0.00 | 38 | 1011.0 |
| 20260830204025 | 37 | 201 | 9.7 | 25.7 | 0.00 | 0.00 | 0.00 | 38 | 1011.0 |
| 20260830203524 | 37 | 162 | 4.8 | 25.7 | 0.00 | 0.00 | 0.00 | 38 | 1011.1 |
| 20260830203051 | 37 | 222 | 8.0 | 25.7 | 0.00 | 0.00 | 0.00 | 38 | 1011.3 |
| 20260830202526 | 37 | 325 | 8.0 | 25.7 | 0.00 | 0.00 | 0.00 | 38 | 1011.4 |
| 20260830202024 | 37 | 169 | 6.4 | 25.7 | 0.00 | 0.00 | 0.00 | 37 | 1011.6 |
| 20260830201549 | 37 | 136 | 3.2 | 20.9 | 0.00 | 0.00 | 0.00 | 39 | 1011.5 |
| 20260830201027 | 37 | 115 | 6.4 | 29.0 | 0.00 | 0.00 | 0.00 | 39 | 1011.5 |
| 20260830200528 | 37 | 0 | 6.4 | 29.0 | 0.00 | 0.00 | 0.00 | 39 | 1011.7 |
| 20260830200047 | 37 | 254 | 4.8 | 33.8 | 0.00 | 0.00 | 0.00 | 39 | 1011.8 |
| 20260830195523 | 36 | 171 | 12.9 | 33.8 | 0.00 | 0.00 | 0.00 | 39 | 1011.8 |
| 20260830195025 | 37 | 177 | 6.4 | 25.7 | 0.00 | 0.00 | 0.00 | 40 | 1012.0 |
| 20260830194559 | 37 | 95 | 6.4 | 24.1 | 0.00 | 0.00 | 0.00 | 40 | 1012.0 |
| 20260830194028 | 37 | 180 | 8.0 | 24.1 | 0.00 | 0.00 | 0.00 | 41 | 1012.0 |
| 20260830193523 | 37 | 150 | 4.8 | 16.1 | 0.00 | 0.00 | 0.00 | 39 | 1012.1 |
| 20260830193049 | 37 | 325 | 4.8 | 20.9 | 0.00 | 0.00 | 0.00 | 39 | 1012.2 |
| 20260830192525 | 37 | 0 | 4.8 | 27.4 | 0.00 | 0.00 | 0.00 | 41 | 1012.2 |
| 20260830192025 | 36 | 174 | 9.7 | 27.4 | 0.00 | 0.00 | 0.00 | 41 | 1012.2 |
| 20260830191547 | 36 | 114 | 8.0 | 27.4 | 0.00 | 0.00 | 0.00 | 41 | 1012.2 |
| 20260830191026 | 36 | 165 | 8.0 | 27.4 | 0.00 | 0.00 | 0.00 | 42 | 1012.2 |
| 20260830190524 | 36 | 166 | 8.0 | 29.0 | 0.00 | 0.00 | 0.00 | 43 | 1012.3 |
| 20260830190041 | 36 | 141 | 11.3 | 29.0 | 0.00 | 0.00 | 0.00 | 41 | 1012.3 |
| 20260830185523 | 36 | 217 | 4.8 | 30.6 | 0.00 | 0.00 | 0.00 | 43 | 1012.3 |
| 20260830185025 | 36 | 205 | 8.0 | 30.6 | 0.00 | 0.00 | 0.00 | 42 | 1012.4 |
| 20260830184549 | 36 | 184 | 4.8 | 27.4 | 0.00 | 0.00 | 0.00 | 43 | 1012.5 |
| 20260830184024 | 35 | 261 | 8.0 | 27.4 | 0.00 | 0.00 | 0.00 | 43 | 1012.5 |
| 20260830183523 | 35 | 180 | 8.0 | 27.4 | 0.00 | 0.00 | 0.00 | 44 | 1012.5 |
| 20260830183044 | 35 | 216 | 6.4 | 27.4 | 0.00 | 0.00 | 0.00 | 43 | 1012.6 |
| 20260830182524 | 35 | 340 | 4.8 | 29.0 | 0.00 | 0.00 | 0.00 | 44 | 1012.7 |
| 20260830182026 | 35 | 148 | 9.7 | 29.0 | 0.00 | 0.00 | 0.00 | 45 | 1012.7 |
| 20260830181549 | 35 | 175 | 11.3 | 24.1 | 0.00 | 0.00 | 0.00 | 45 | 1012.8 |
| 20260830181024 | 35 | 137 | 4.8 | 30.6 | 0.00 | 0.00 | 0.00 | 46 | 1012.8 |
| 20260830180523 | 35 | 217 | 8.0 | 30.6 | 0.00 | 0.00 | 0.00 | 45 | 1012.7 |
| 20260830180049 | 35 | 269 | 6.4 | 22.5 | 0.00 | 0.00 | 0.00 | 44 | 1012.9 |
| 20260830175523 | 34 | 214 | 4.8 | 33.8 | 0.00 | 0.00 | 0.00 | 46 | 1012.9 |
| 20260830175023 | 33 | 192 | 9.7 | 33.8 | 0.00 | 0.00 | 0.00 | 45 | 1013.1 |
| 20260830174603 | 34 | 176 | 6.4 | 22.5 | 0.00 | 0.00 | 0.00 | 45 | 1013.0 |
| 20260830174023 | 34 | 154 | 8.0 | 24.1 | 0.00 | 0.00 | 0.00 | 46 | 1013.0 |
| 20260830173524 | 33 | 352 | 8.0 | 24.1 | 0.00 | 0.00 | 0.00 | 47 | 1013.1 |
| 20260830173049 | 33 | 173 | 8.0 | 24.1 | 0.00 | 0.00 | 0.00 | 46 | 1013.0 |
| 20260830172523 | 33 | 279 | 6.4 | 24.1 | 0.00 | 0.00 | 0.00 | 47 | 1013.1 |
| 20260830172026 | 33 | 97 | 8.0 | 29.0 | 0.00 | 0.00 | 0.00 | 48 | 1013.1 |
| 20260830171600 | 33 | 117 | 8.0 | 32.2 | 0.00 | 0.00 | 0.00 | 49 | 1013.2 |
| 20260830171026 | 32 | 0 | 9.7 | 32.2 | 0.00 | 0.00 | 0.00 | 49 | 1013.3 |
| 20260830170531 | 33 | 205 | 9.7 | 22.5 | 0.00 | 0.00 | 0.00 | 48 | 1013.4 |
| 20260830170048 | 32 | 199 | 6.4 | 32.2 | 0.00 | 0.00 | 0.00 | 50 | 1013.4 |
| 20260830165529 | 32 | 130 | 8.0 | 32.2 | 0.00 | 0.00 | 0.00 | 50 | 1013.4 |
| 20260830165023 | 32 | 153 | 9.7 | 32.2 | 0.00 | 0.00 | 0.00 | 51 | 1013.4 |
| 20260830164542 | 32 | 165 | 9.7 | 25.7 | 0.00 | 0.00 | 0.00 | 49 | 1013.4 |
| 20260830164028 | 32 | 163 | 3.2 | 22.5 | 0.00 | 0.00 | 0.00 | 51 | 1013.6 |
| 20260830163524 | 32 | 191 | 8.0 | 27.4 | 0.00 | 0.00 | 0.00 | 51 | 1013.5 |
| 20260830163055 | 31 | 167 | 9.7 | 27.4 | 0.00 | 0.00 | 0.00 | 51 | 1013.5 |
| 20260830162526 | 31 | 0 | 8.0 | 27.4 | 0.00 | 0.00 | 0.00 | 53 | 1013.5 |
| 20260830162026 | 31 | 161 | 9.7 | 27.4 | 0.00 | 0.00 | 0.00 | 52 | 1013.7 |
| 20260830161604 | 31 | 231 | 6.4 | 22.5 | 0.00 | 0.00 | 0.00 | 53 | 1013.7 |
| 20260830161024 | 31 | 132 | 8.0 | 22.5 | 0.00 | 0.00 | 0.00 | 52 | 1013.7 |
| 20260830160527 | 31 | 243 | 4.8 | 24.1 | 0.00 | 0.00 | 0.00 | 53 | 1013.6 |
| 20260830160044 | 31 | 161 | 6.4 | 24.1 | 0.00 | 0.00 | 0.00 | 53 | 1013.6 |
| 20260830155531 | 30 | 178 | 6.4 | 25.7 | 0.00 | 0.00 | 0.00 | 53 | 1013.5 |
| 20260830155029 | 30 | 182 | 6.4 | 25.7 | 0.00 | 0.00 | 0.00 | 54 | 1013.5 |
| 20260830154551 | 30 | 170 | 8.0 | 22.5 | 0.00 | 0.00 | 0.00 | 54 | 1013.5 |
| 20260830154026 | 30 | 157 | 6.4 | 22.5 | 0.00 | 0.00 | 0.00 | 54 | 1013.5 |
| 20260830153525 | 30 | 159 | 4.8 | 25.7 | 0.00 | 0.00 | 0.00 | 55 | 1013.5 |
| 20260830153048 | 29 | 166 | 8.0 | 25.7 | 0.00 | 0.00 | 0.00 | 55 | 1013.4 |
| 20260830152526 | 29 | 275 | 8.0 | 25.7 | 0.00 | 0.00 | 0.00 | 55 | 1013.4 |
| 20260830152024 | 29 | 174 | 3.2 | 24.1 | 0.00 | 0.00 | 0.00 | 57 | 1013.4 |
| 20260830151555 | 28 | 176 | 6.4 | 24.1 | 0.00 | 0.00 | 0.00 | 56 | 1013.3 |
| 20260830151030 | 28 | 136 | 9.7 | 24.1 | 0.00 | 0.00 | 0.00 | 56 | 1013.3 |
| 20260830150523 | 28 | 205 | 6.4 | 20.9 | 0.00 | 0.00 | 0.00 | 56 | 1013.3 |
| 20260830150048 | 28 | 176 | 6.4 | 19.3 | 0.00 | 0.00 | 0.00 | 56 | 1013.2 |
| 20260830145529 | 28 | 191 | 8.0 | 19.3 | 0.00 | 0.00 | 0.00 | 57 | 1013.1 |
| 20260830145026 | 28 | 173 | 4.8 | 22.5 | 0.00 | 0.00 | 0.00 | 58 | 1013.1 |
| 20260830144543 | 28 | 180 | 4.8 | 22.5 | 0.00 | 0.00 | 0.00 | 59 | 1013.1 |
| 20260830144024 | 27 | 0 | 4.8 | 22.5 | 0.00 | 0.00 | 0.00 | 58 | 1013.2 |
| 20260830143525 | 27 | 158 | 4.8 | 20.9 | 0.00 | 0.00 | 0.00 | 60 | 1013.2 |
| 20260830143048 | 27 | 194 | 4.8 | 24.1 | 0.00 | 0.00 | 0.00 | 60 | 1013.3 |
| 20260830142523 | 27 | 130 | 9.7 | 24.1 | 0.00 | 0.00 | 0.00 | 60 | 1013.2 |
| 20260830142028 | 26 | 179 | 4.8 | 16.1 | 0.00 | 0.00 | 0.00 | 61 | 1013.3 |
| 20260830141543 | 26 | 173 | 4.8 | 17.7 | 0.00 | 0.00 | 0.00 | 61 | 1013.2 |
| 20260830141029 | 26 | 146 | 6.4 | 20.9 | 0.00 | 0.00 | 0.00 | 60 | 1013.3 |
| 20260830140524 | 26 | 111 | 4.8 | 20.9 | 0.00 | 0.00 | 0.00 | 60 | 1013.3 |
| 20260830140104 | 26 | 33 | 6.4 | 20.9 | 0.00 | 0.00 | 0.00 | 60 | 1013.4 |
| 20260830135532 | 26 | 174 | 4.8 | 20.9 | 0.00 | 0.00 | 0.00 | 60 | 1013.5 |
| 20260830135025 | 26 | 223 | 6.4 | 19.3 | 0.00 | 0.00 | 0.00 | 59 | 1013.5 |
| 20260830134554 | 26 | 165 | 3.2 | 20.9 | 0.00 | 0.00 | 0.00 | 60 | 1013.6 |
| 20260830134027 | 27 | 125 | 3.2 | 20.9 | 0.00 | 0.00 | 0.00 | 59 | 1013.6 |
| 20260830133525 | 26 | 162 | 6.4 | 17.7 | 0.00 | 0.00 | 0.00 | 60 | 1013.5 |
| 20260830133049 | 26 | 156 | 4.8 | 19.3 | 0.00 | 0.00 | 0.00 | 61 | 1013.6 |
| 20260830132525 | 26 | 152 | 6.4 | 19.3 | 0.00 | 0.00 | 0.00 | 62 | 1013.7 |
| 20260830132024 | 25 | 189 | 4.8 | 19.3 | 0.00 | 0.00 | 0.00 | 62 | 1013.7 |
| 20260830131549 | 25 | 180 | 6.4 | 20.9 | 0.00 | 0.00 | 0.00 | 63 | 1013.6 |
| 20260830131023 | 25 | 220 | 4.8 | 20.9 | 0.00 | 0.00 | 0.00 | 64 | 1013.7 |
| 20260830130528 | 25 | 171 | 3.2 | 17.7 | 0.00 | 0.00 | 0.00 | 64 | 1013.8 |
| 20260830130054 | 24 | 198 | 3.2 | 14.5 | 0.00 | 0.00 | 0.00 | 65 | 1013.8 |
| 20260830125525 | 24 | 287 | 3.2 | 14.5 | 0.00 | 0.00 | 0.00 | 65 | 1013.8 |
| 20260830125025 | 24 | 150 | 4.8 | 17.7 | 0.00 | 0.00 | 0.00 | 66 | 1013.8 |
| 20260830124549 | 24 | 175 | 6.4 | 17.7 | 0.00 | 0.00 | 0.00 | 66 | 1013.8 |
| 20260830124027 | 24 | 163 | 6.4 | 12.9 | 0.00 | 0.00 | 0.00 | 66 | 1013.7 |
| 20260830123528 | 24 | 166 | 4.8 | 12.9 | 0.00 | 0.00 | 0.00 | 66 | 1013.8 |
| 20260830123055 | 24 | 217 | 4.8 | 14.5 | 0.00 | 0.00 | 0.00 | 65 | 1013.8 |
| 20260830122526 | 23 | 155 | 4.8 | 14.5 | 0.00 | 0.00 | 0.00 | 65 | 1013.7 |
| 20260830122026 | 23 | 173 | 4.8 | 14.5 | 0.00 | 0.00 | 0.00 | 65 | 1013.7 |
| 20260830121547 | 23 | 181 | 4.8 | 17.7 | 0.00 | 0.00 | 0.00 | 65 | 1013.7 |
| 20260830121026 | 24 | 156 | 6.4 | 17.7 | 0.00 | 0.00 | 0.00 | 64 | 1013.7 |
| 20260830120527 | 24 | 161 | 3.2 | 16.1 | 0.00 | 0.00 | 0.00 | 64 | 1013.9 |
| 20260830120053 | 24 | 163 | 4.8 | 16.1 | 0.00 | 0.00 | 0.00 | 64 | 1013.9 |
| 20260830115524 | 24 | 188 | 6.4 | 17.7 | 0.00 | 0.00 | 0.00 | 63 | 1013.7 |
| 20260830115026 | 24 | 175 | 4.8 | 17.7 | 0.00 | 0.00 | 0.00 | 63 | 1013.7 |
| 20260830114546 | 24 | 188 | 3.2 | 16.1 | 0.00 | 0.00 | 0.00 | 62 | 1013.7 |
| 20260830114024 | 24 | 190 | 4.8 | 16.1 | 0.00 | 0.00 | 0.00 | 62 | 1013.8 |
| 20260830113523 | 24 | 173 | 4.8 | 16.1 | 0.00 | 0.00 | 0.00 | 61 | 1013.8 |
| 20260830113045 | 25 | 172 | 6.4 | 17.7 | 0.00 | 0.00 | 0.00 | 61 | 1013.7 |
| 20260830112522 | 25 | 149 | 8.0 | 17.7 | 0.00 | 0.00 | 0.00 | 61 | 1013.7 |
| 20260830112024 | 25 | 207 | 6.4 | 17.7 | 0.00 | 0.00 | 0.00 | 61 | 1013.8 |
| 20260830111548 | 25 | 166 | 4.8 | 17.7 | 0.00 | 0.00 | 0.00 | 60 | 1013.8 |
| 20260830111025 | 25 | 171 | 4.8 | 19.3 | 0.00 | 0.00 | 0.00 | 60 | 1013.7 |
| 20260830110524 | 25 | 177 | 8.0 | 20.9 | 0.00 | 0.00 | 0.00 | 60 | 1013.7 |
| 20260830110050 | 25 | 175 | 8.0 | 20.9 | 0.00 | 0.00 | 0.00 | 60 | 1013.8 |
| 20260830105523 | 25 | 151 | 6.4 | 19.3 | 0.00 | 0.00 | 0.00 | 60 | 1013.8 |
| 20260830105023 | 25 | 159 | 8.0 | 19.3 | 0.00 | 0.00 | 0.00 | 59 | 1013.8 |
| 20260830104549 | 25 | 179 | 8.0 | 17.7 | 0.00 | 0.00 | 0.00 | 59 | 1013.7 |
| 20260830104023 | 25 | 173 | 6.4 | 16.1 | 0.00 | 0.00 | 0.00 | 59 | 1013.7 |
| 20260830103523 | 25 | 192 | 8.0 | 16.1 | 0.00 | 0.00 | 0.00 | 59 | 1013.6 |
| 20260830103050 | 25 | 175 | 3.2 | 17.7 | 0.00 | 0.00 | 0.00 | 59 | 1013.5 |
| 20260830102526 | 25 | 175 | 6.4 | 20.9 | 0.00 | 0.00 | 0.00 | 59 | 1013.6 |
| 20260830102023 | 25 | 163 | 8.0 | 22.5 | 0.00 | 0.00 | 0.00 | 59 | 1013.7 |
| 20260830101558 | 25 | 168 | 8.0 | 22.5 | 0.00 | 0.00 | 0.00 | 59 | 1013.7 |
| 20260830101025 | 25 | 171 | 4.8 | 14.5 | 0.00 | 0.00 | 0.00 | 59 | 1013.7 |
| 20260830100524 | 25 | 157 | 3.2 | 14.5 | 0.00 | 0.00 | 0.00 | 59 | 1013.6 |
| 20260830100057 | 25 | 166 | 4.8 | 17.7 | 0.00 | 0.00 | 0.00 | 59 | 1013.5 |
| 20260830095524 | 25 | 184 | 6.4 | 19.3 | 0.00 | 0.00 | 0.00 | 59 | 1013.6 |
| 20260830095022 | 25 | 183 | 6.4 | 19.3 | 0.00 | 0.00 | 0.00 | 59 | 1013.5 |
| 20260830094556 | 25 | 173 | 6.4 | 17.7 | 0.00 | 0.00 | 0.00 | 59 | 1013.5 |
| 20260830094022 | 25 | 192 | 4.8 | 17.7 | 0.00 | 0.00 | 0.00 | 59 | 1013.5 |
| 20260830093522 | 25 | 178 | 4.8 | 24.1 | 0.00 | 0.00 | 0.00 | 59 | 1013.5 |
| 20260830093046 | 25 | 198 | 3.2 | 24.1 | 0.00 | 0.00 | 0.00 | 60 | 1013.5 |
| 20260830092528 | 25 | 176 | 4.8 | 17.7 | 0.00 | 0.00 | 0.00 | 60 | 1013.5 |
| 20260830092027 | 25 | 159 | 6.4 | 17.7 | 0.00 | 0.00 | 0.00 | 59 | 1013.4 |
| 20260830091544 | 25 | 214 | 4.8 | 14.5 | 0.00 | 0.00 | 0.00 | 59 | 1013.4 |
| 20260830091027 | 25 | 166 | 6.4 | 19.3 | 0.00 | 0.00 | 0.00 | 59 | 1013.3 |
| 20260830090528 | 25 | 199 | 4.8 | 22.5 | 0.00 | 0.00 | 0.00 | 59 | 1013.4 |
| 20260830090054 | 25 | 0 | 6.4 | 22.5 | 0.00 | 0.00 | 0.00 | 59 | 1013.4 |
| 20260830085525 | 25 | 161 | 6.4 | 19.3 | 0.00 | 0.00 | 0.00 | 59 | 1013.5 |
| 20260830085027 | 25 | 202 | 4.8 | 19.3 | 0.00 | 0.00 | 0.00 | 58 | 1013.5 |
| 20260830084546 | 25 | 169 | 3.2 | 14.5 | 0.00 | 0.00 | 0.00 | 59 | 1013.4 |
| 20260830084024 | 25 | 190 | 4.8 | 16.1 | 0.00 | 0.00 | 0.00 | 59 | 1013.4 |
| 20260830083526 | 25 | 188 | 4.8 | 16.1 | 0.00 | 0.00 | 0.00 | 58 | 1013.4 |
| 20260830083052 | 25 | 190 | 3.2 | 14.5 | 0.00 | 0.00 | 0.00 | 58 | 1013.4 |
| 20260830082523 | 26 | 0 | 3.2 | 16.1 | 0.00 | 0.00 | 0.00 | 58 | 1013.5 |
| 20260830082026 | 26 | 173 | 4.8 | 17.7 | 0.00 | 0.00 | 0.00 | 58 | 1013.4 |
| 20260830081548 | 26 | 171 | 4.8 | 17.7 | 0.00 | 0.00 | 0.00 | 58 | 1013.5 |
| 20260830081024 | 26 | 190 | 3.2 | 16.1 | 0.00 | 0.00 | 0.00 | 57 | 1013.4 |
| 20260830080526 | 26 | 155 | 6.4 | 16.1 | 0.00 | 0.00 | 0.00 | 57 | 1013.5 |
| 20260830080052 | 26 | 166 | 6.4 | 16.1 | 0.00 | 0.00 | 0.00 | 57 | 1013.4 |
| 20260830075525 | 26 | 173 | 4.8 | 17.7 | 0.00 | 0.00 | 0.00 | 57 | 1013.4 |
| 20260830075027 | 26 | 168 | 6.4 | 17.7 | 0.00 | 0.00 | 0.00 | 57 | 1013.4 |
| 20260830074557 | 26 | 167 | 6.4 | 17.7 | 0.00 | 0.00 | 0.00 | 57 | 1013.4 |
| 20260830074028 | 26 | 190 | 4.8 | 14.5 | 0.00 | 0.00 | 0.00 | 57 | 1013.4 |
| 20260830073524 | 26 | 200 | 4.8 | 17.7 | 0.00 | 0.00 | 0.00 | 57 | 1013.3 |
| 20260830073050 | 26 | 214 | 3.2 | 17.7 | 0.00 | 0.00 | 0.00 | 56 | 1013.3 |
| 20260830072525 | 26 | 167 | 6.4 | 16.1 | 0.00 | 0.00 | 0.00 | 56 | 1013.2 |
| 20260830072025 | 26 | 172 | 3.2 | 20.9 | 0.00 | 0.00 | 0.00 | 57 | 1013.1 |
| 20260830071558 | 27 | 173 | 6.4 | 20.9 | 0.00 | 0.00 | 0.00 | 56 | 1013.2 |
| 20260830071023 | 27 | 157 | 6.4 | 19.3 | 0.00 | 0.00 | 0.00 | 56 | 1013.2 |
| 20260830070524 | 27 | 180 | 6.4 | 17.7 | 0.00 | 0.00 | 0.00 | 57 | 1013.2 |
| 20260830070044 | 27 | 171 | 4.8 | 17.7 | 0.00 | 0.00 | 0.00 | 57 | 1013.3 |
| 20260830065527 | 27 | 170 | 4.8 | 22.5 | 0.00 | 0.00 | 0.00 | 57 | 1013.5 |
| 20260830065025 | 27 | 168 | 4.8 | 22.5 | 0.00 | 0.00 | 0.00 | 56 | 1013.3 |
| 20260830064546 | 27 | 132 | 4.8 | 24.1 | 0.00 | 0.00 | 0.00 | 56 | 1013.3 |
| 20260830064021 | 27 | 180 | 9.7 | 24.1 | 0.00 | 0.00 | 0.00 | 56 | 1013.3 |
| 20260830063525 | 27 | 75 | 8.0 | 20.9 | 0.00 | 0.00 | 0.00 | 56 | 1013.4 |
| 20260830063052 | 27 | 225 | 6.4 | 20.9 | 0.00 | 0.00 | 0.00 | 56 | 1013.5 |
| 20260830062528 | 27 | 177 | 8.0 | 17.7 | 0.00 | 0.00 | 0.00 | 56 | 1013.4 |
| 20260830062025 | 27 | 188 | 8.0 | 17.7 | 0.00 | 0.00 | 0.00 | 56 | 1013.4 |
| 20260830061547 | 27 | 153 | 4.8 | 20.9 | 0.00 | 0.00 | 0.00 | 56 | 1013.3 |
| 20260830061024 | 27 | 167 | 9.7 | 20.9 | 0.00 | 0.00 | 0.00 | 56 | 1013.3 |
| 20260830060527 | 27 | 155 | 4.8 | 20.9 | 0.00 | 0.00 | 0.00 | 56 | 1013.4 |
| 20260830060047 | 27 | 188 | 4.8 | 17.7 | 0.00 | 0.00 | 0.00 | 56 | 1013.4 |
| 20260830055524 | 27 | 174 | 1.6 | 17.7 | 0.00 | 0.00 | 0.00 | 56 | 1013.5 |
| 20260830055026 | 27 | 180 | 6.4 | 17.7 | 0.00 | 0.00 | 0.00 | 56 | 1013.5 |
| 20260830054549 | 27 | 157 | 4.8 | 16.1 | 0.00 | 0.00 | 0.00 | 56 | 1013.4 |
| 20260830054027 | 28 | 269 | 6.4 | 20.9 | 0.00 | 0.00 | 0.00 | 56 | 1013.5 |
| 20260830053524 | 28 | 203 | 4.8 | 20.9 | 0.00 | 0.00 | 0.00 | 56 | 1013.3 |
| 20260830053041 | 28 | 164 | 6.4 | 22.5 | 0.00 | 0.00 | 0.00 | 56 | 1013.4 |
| 20260830052524 | 28 | 188 | 8.0 | 22.5 | 0.00 | 0.00 | 0.00 | 56 | 1013.4 |
| 20260830052025 | 28 | 157 | 8.0 | 17.7 | 0.00 | 0.00 | 0.00 | 56 | 1013.3 |
| 20260830051548 | 28 | 188 | 1.6 | 17.7 | 0.00 | 0.00 | 0.00 | 56 | 1013.4 |
| 20260830051026 | 28 | 0 | 4.8 | 14.5 | 0.00 | 0.00 | 0.00 | 56 | 1013.4 |
| 20260830050524 | 28 | 186 | 3.2 | 11.3 | 0.00 | 0.00 | 0.00 | 56 | 1013.5 |
| 20260830050115 | 28 | 193 | 3.2 | 17.7 | 0.00 | 0.00 | 0.00 | 56 | 1013.5 |
| 20260830045524 | 28 | 142 | 4.8 | 17.7 | 0.00 | 0.00 | 0.00 | 56 | 1013.5 |
| 20260830045027 | 28 | 155 | 4.8 | 16.1 | 0.00 | 0.00 | 0.00 | 56 | 1013.5 |
| 20260830044546 | 28 | 171 | 4.8 | 16.1 | 0.00 | 0.00 | 0.00 | 55 | 1013.3 |
| 20260830044025 | 28 | 222 | 4.8 | 17.7 | 0.00 | 0.00 | 0.00 | 55 | 1013.3 |
| 20260830043527 | 28 | 0 | 4.8 | 17.7 | 0.00 | 0.00 | 0.00 | 55 | 1013.4 |
| 20260830043049 | 28 | 0 | 4.8 | 17.7 | 0.00 | 0.00 | 0.00 | 55 | 1013.5 |
| 20260830042529 | 28 | 165 | 3.2 | 16.1 | 0.00 | 0.00 | 0.00 | 55 | 1013.5 |
| 20260830042026 | 28 | 177 | 4.8 | 12.9 | 0.00 | 0.00 | 0.00 | 55 | 1013.5 |
| 20260830041618 | 28 | 157 | 3.2 | 12.9 | 0.00 | 0.00 | 0.00 | 55 | 1013.5 |
| 20260830041026 | 28 | 175 | 3.2 | 11.3 | 0.00 | 0.00 | 0.00 | 54 | 1013.6 |
| 20260830040526 | 28 | 0 | 4.8 | 11.3 | 0.00 | 0.00 | 0.00 | 54 | 1013.5 |
| 20260830040048 | 29 | 0 | 3.2 | 14.5 | 0.00 | 0.00 | 0.00 | 53 | 1013.5 |
| 20260830035524 | 29 | 195 | 4.8 | 14.5 | 0.00 | 0.00 | 0.00 | 53 | 1013.5 |
| 20260830035024 | 29 | 173 | 1.6 | 16.1 | 0.00 | 0.00 | 0.00 | 53 | 1013.5 |
| 20260830034550 | 29 | 197 | 8.0 | 16.1 | 0.00 | 0.00 | 0.00 | 53 | 1013.4 |
| 20260830034024 | 29 | 203 | 3.2 | 12.9 | 0.00 | 0.00 | 0.00 | 53 | 1013.5 |
| 20260830033523 | 29 | 182 | 3.2 | 11.3 | 0.00 | 0.00 | 0.00 | 54 | 1013.5 |
| 20260830033049 | 29 | 173 | 4.8 | 14.5 | 0.00 | 0.00 | 0.00 | 53 | 1013.5 |
| 20260830032531 | 29 | 150 | 3.2 | 14.5 | 0.00 | 0.00 | 0.00 | 53 | 1013.5 |
| 20260830032026 | 29 | 184 | 4.8 | 16.1 | 0.00 | 0.00 | 0.00 | 53 | 1013.4 |
| 20260830031559 | 29 | 180 | 4.8 | 17.7 | 0.00 | 0.00 | 0.00 | 53 | 1013.4 |
| 20260830031027 | 29 | 158 | 6.4 | 17.7 | 0.00 | 0.00 | 0.00 | 53 | 1013.4 |
| 20260830030528 | 30 | 162 | 6.4 | 16.1 | 0.00 | 0.00 | 0.00 | 53 | 1013.3 |
| 20260830030050 | 30 | 211 | 6.4 | 16.1 | 0.00 | 0.00 | 0.00 | 52 | 1013.4 |
| 20260830025523 | 30 | 194 | 4.8 | 12.9 | 0.00 | 0.00 | 0.00 | 53 | 1013.4 |
| 20260830025024 | 30 | 166 | 4.8 | 17.7 | 0.00 | 0.00 | 0.00 | 53 | 1013.3 |
| 20260830024555 | 30 | 161 | 6.4 | 20.9 | 0.00 | 0.00 | 0.00 | 52 | 1013.1 |
| 20260830024025 | 30 | 209 | 6.4 | 20.9 | 0.00 | 0.00 | 0.00 | 52 | 1013.0 |
| 20260830023528 | 30 | 162 | 8.0 | 20.9 | 0.00 | 0.00 | 0.00 | 52 | 1013.1 |
| 20260830023044 | 30 | 168 | 4.8 | 17.7 | 0.00 | 0.00 | 0.00 | 52 | 1013.0 |
| 20260830022524 | 30 | 175 | 6.4 | 17.7 | 0.00 | 0.00 | 0.00 | 52 | 1013.0 |
| 20260830022029 | 30 | 173 | 6.4 | 17.7 | 0.00 | 0.00 | 0.00 | 52 | 1012.9 |
| 20260830021558 | 30 | 192 | 3.2 | 16.1 | 0.00 | 0.00 | 0.00 | 52 | 1012.8 |
| 20260830021025 | 30 | 194 | 4.8 | 14.5 | 0.00 | 0.00 | 0.00 | 52 | 1012.7 |
| 20260830020524 | 30 | 175 | 3.2 | 14.5 | 0.00 | 0.00 | 0.00 | 52 | 1012.7 |
| 20260830020049 | 30 | 178 | 6.4 | 14.5 | 0.00 | 0.00 | 0.00 | 52 | 1012.6 |
| 20260830015527 | 30 | 174 | 4.8 | 12.9 | 0.00 | 0.00 | 0.00 | 52 | 1012.5 |
| 20260830015029 | 30 | 180 | 4.8 | 12.9 | 0.00 | 0.00 | 0.00 | 51 | 1012.4 |
| 20260830014544 | 30 | 132 | 4.8 | 14.5 | 0.00 | 0.00 | 0.00 | 51 | 1012.4 |
| 20260830014026 | 30 | 200 | 4.8 | 14.5 | 0.00 | 0.00 | 0.00 | 50 | 1012.2 |
| 20260830013524 | 31 | 174 | 4.8 | 17.7 | 0.00 | 0.00 | 0.00 | 50 | 1012.2 |
| 20260830013053 | 31 | 188 | 6.4 | 17.7 | 0.00 | 0.00 | 0.00 | 49 | 1012.2 |
| 20260830012526 | 31 | 163 | 3.2 | 11.3 | 0.00 | 0.00 | 0.00 | 49 | 1012.2 |
| 20260830012024 | 31 | 159 | 3.2 | 14.5 | 0.00 | 0.00 | 0.00 | 48 | 1012.2 |
| 20260830011605 | 31 | 0 | 4.8 | 14.5 | 0.00 | 0.00 | 0.00 | 48 | 1012.0 |
| 20260830011025 | 31 | 180 | 4.8 | 14.5 | 0.00 | 0.00 | 0.00 | 47 | 1012.0 |
| 20260830010524 | 32 | 139 | 4.8 | 17.7 | 0.00 | 0.00 | 0.00 | 46 | 1012.0 |
| 20260830010050 | 32 | 184 | 4.8 | 17.7 | 0.00 | 0.00 | 0.00 | 46 | 1012.0 |
| 20260830005525 | 32 | 184 | 6.4 | 17.7 | 0.00 | 0.00 | 0.00 | 46 | 1012.0 |
| 20260830005027 | 32 | 167 | 6.4 | 17.7 | 0.00 | 0.00 | 0.00 | 46 | 1012.0 |